| time (UTC) | temp F | wind direction | speed MPH | gust MPH | rain 1hr in | rain 24hr in | rain mn in | humidity % | barometer mb |
| 20260509224518 | 72 | 48 | 3.0 | 8.0 | 0.00 | 0.00 | 0.00 | 30 | 1013.0 |
| 20260509223510 | 72 | 66 | 3.0 | 8.0 | 0.00 | 0.00 | 0.00 | 30 | 1012.9 |
| 20260509222508 | 73 | 204 | 1.0 | 5.0 | 0.00 | 0.00 | 0.00 | 29 | 1013.1 |
| 20260509222011 | 73 | 283 | 1.0 | 7.0 | 0.00 | 0.00 | 0.00 | 30 | 1013.1 |
| 20260509221522 | 72 | 281 | 1.0 | 7.0 | 0.00 | 0.00 | 0.00 | 29 | 1013.0 |
| 20260509221009 | 73 | 282 | 3.0 | 7.0 | 0.00 | 0.00 | 0.00 | 30 | 1013.0 |
| 20260509220512 | 73 | 282 | 2.0 | 9.0 | 0.00 | 0.00 | 0.00 | 31 | 1013.0 |
| 20260509220035 | 73 | 287 | 4.0 | 10.0 | 0.00 | 0.00 | 0.00 | 29 | 1013.1 |
| 20260509215515 | 73 | 283 | 2.0 | 10.0 | 0.00 | 0.00 | 0.00 | 28 | 1013.2 |
| 20260509215008 | 73 | 282 | 5.0 | 10.0 | 0.00 | 0.00 | 0.00 | 30 | 1013.2 |
| 20260509214526 | 73 | 281 | 2.0 | 11.0 | 0.00 | 0.00 | 0.00 | 29 | 1013.2 |
| 20260509214010 | 73 | 282 | 3.0 | 11.0 | 0.00 | 0.00 | 0.00 | 29 | 1013.3 |
| 20260509213510 | 73 | 57 | 4.0 | 10.0 | 0.00 | 0.00 | 0.00 | 28 | 1013.3 |
| 20260509213021 | 73 | 233 | 3.0 | 12.0 | 0.00 | 0.00 | 0.00 | 28 | 1013.3 |
| 20260509212510 | 73 | 44 | 5.0 | 12.0 | 0.00 | 0.00 | 0.00 | 28 | 1013.3 |
| 20260509212012 | 73 | 26 | 2.0 | 11.0 | 0.00 | 0.00 | 0.00 | 28 | 1013.3 |
| 20260509211524 | 74 | 79 | 5.0 | 11.0 | 0.00 | 0.00 | 0.00 | 28 | 1013.4 |
| 20260509211008 | 74 | 12 | 3.0 | 11.0 | 0.00 | 0.00 | 0.00 | 26 | 1013.5 |
| 20260509210511 | 74 | 79 | 5.0 | 11.0 | 0.00 | 0.00 | 0.00 | 28 | 1013.5 |
| 20260509210024 | 74 | 69 | 4.0 | 9.0 | 0.00 | 0.00 | 0.00 | 26 | 1013.4 |
| 20260509205511 | 74 | 352 | 1.0 | 9.0 | 0.00 | 0.00 | 0.00 | 27 | 1013.3 |
| 20260509205010 | 75 | 54 | 5.0 | 9.0 | 0.00 | 0.00 | 0.00 | 26 | 1013.4 |
| 20260509204006 | 75 | 223 | 2.0 | 9.0 | 0.00 | 0.00 | 0.00 | 27 | 1013.4 |
| 20260509203511 | 76 | 67 | 2.0 | 9.0 | 0.00 | 0.00 | 0.00 | 19 | 1013.4 |
| 20260509203029 | 76 | 64 | 2.0 | 10.0 | 0.00 | 0.00 | 0.00 | 18 | 1013.4 |
| 20260509202508 | 77 | 87 | 4.0 | 10.0 | 0.00 | 0.00 | 0.00 | 18 | 1013.4 |
| 20260509202007 | 77 | 61 | 5.0 | 9.0 | 0.00 | 0.00 | 0.00 | 19 | 1013.4 |
| 20260509201007 | 76 | 57 | 4.0 | 9.0 | 0.00 | 0.00 | 0.00 | 22 | 1013.6 |
| 20260509200026 | 77 | 50 | 6.0 | 11.0 | 0.00 | 0.00 | 0.00 | 18 | 1013.7 |
| 20260509195511 | 76 | 63 | 3.0 | 11.0 | 0.00 | 0.00 | 0.00 | 21 | 1013.6 |
| 20260509195009 | 77 | 56 | 5.0 | 11.0 | 0.00 | 0.00 | 0.00 | 19 | 1013.5 |
| 20260509194541 | 77 | 64 | 5.0 | 11.0 | 0.00 | 0.00 | 0.00 | 18 | 1013.5 |
| 20260509194013 | 78 | 248 | 2.0 | 15.0 | 0.00 | 0.00 | 0.00 | 17 | 1013.5 |
| 20260509193511 | 78 | 82 | 5.0 | 16.0 | 0.00 | 0.00 | 0.00 | 17 | 1013.5 |
| 20260509192509 | 78 | 52 | 4.0 | 16.0 | 0.00 | 0.00 | 0.00 | 19 | 1013.3 |
| 20260509191012 | 78 | 252 | 5.0 | 11.0 | 0.00 | 0.00 | 0.00 | 20 | 1013.3 |
| 20260509190509 | 78 | 70 | 4.0 | 12.0 | 0.00 | 0.00 | 0.00 | 20 | 1013.4 |
| 20260509185008 | 77 | 283 | 5.0 | 11.0 | 0.00 | 0.00 | 0.00 | 21 | 1013.4 |
| 20260509184526 | 77 | 108 | 6.0 | 11.0 | 0.00 | 0.00 | 0.00 | 20 | 1013.4 |
| 20260509184009 | 77 | 198 | 6.0 | 11.0 | 0.00 | 0.00 | 0.00 | 19 | 1013.4 |
| 20260509183510 | 77 | 317 | 4.0 | 10.0 | 0.00 | 0.00 | 0.00 | 21 | 1013.4 |
| 20260509183026 | 77 | 58 | 5.0 | 10.0 | 0.00 | 0.00 | 0.00 | 19 | 1013.4 |
| 20260509182511 | 77 | 90 | 2.0 | 10.0 | 0.00 | 0.00 | 0.00 | 20 | 1013.4 |
| 20260509182015 | 77 | 67 | 6.0 | 10.0 | 0.00 | 0.00 | 0.00 | 19 | 1013.4 |
| 20260509181011 | 76 | 69 | 4.0 | 10.0 | 0.00 | 0.00 | 0.00 | 22 | 1013.6 |
| 20260509180514 | 77 | 47 | 5.0 | 10.0 | 0.00 | 0.00 | 0.00 | 21 | 1013.7 |
| 20260509175510 | 77 | 73 | 4.0 | 8.0 | 0.00 | 0.00 | 0.00 | 20 | 1013.7 |
| 20260509175009 | 78 | 67 | 3.0 | 8.0 | 0.00 | 0.00 | 0.00 | 20 | 1013.7 |
| 20260509173509 | 77 | 91 | 5.0 | 10.0 | 0.00 | 0.00 | 0.00 | 20 | 1013.6 |
| 20260509173024 | 77 | 83 | 6.0 | 10.0 | 0.00 | 0.00 | 0.00 | 20 | 1013.6 |
| 20260509172512 | 77 | 30 | 5.0 | 11.0 | 0.00 | 0.00 | 0.00 | 22 | 1013.6 |
| 20260509172016 | 77 | 275 | 3.0 | 11.0 | 0.00 | 0.00 | 0.00 | 23 | 1013.5 |
| 20260509171537 | 76 | 63 | 3.0 | 9.0 | 0.00 | 0.00 | 0.00 | 23 | 1013.6 |
| 20260509171008 | 76 | 53 | 5.0 | 9.0 | 0.00 | 0.00 | 0.00 | 23 | 1013.6 |
| 20260509162513 | 75 | 46 | 4.0 | 11.0 | 0.00 | 0.00 | 0.00 | 21 | 1013.5 |
| 20260509162012 | 75 | 66 | 4.0 | 11.0 | 0.00 | 0.00 | 0.00 | 22 | 1013.4 |
| 20260509161532 | 75 | 53 | 2.0 | 7.0 | 0.00 | 0.00 | 0.00 | 22 | 1013.4 |
| 20260509161012 | 75 | 57 | 2.0 | 8.0 | 0.00 | 0.00 | 0.00 | 22 | 1013.5 |
| 20260509160508 | 74 | 26 | 2.0 | 8.0 | 0.00 | 0.00 | 0.00 | 21 | 1013.4 |
| 20260509160028 | 74 | 289 | 2.0 | 8.0 | 0.00 | 0.00 | 0.00 | 23 | 1013.5 |
| 20260509155009 | 74 | 300 | 3.0 | 8.0 | 0.00 | 0.00 | 0.00 | 22 | 1013.4 |
| 20260509154006 | 73 | 329 | 1.0 | 11.0 | 0.00 | 0.00 | 0.00 | 24 | 1013.5 |
| 20260509153507 | 72 | 299 | 3.0 | 11.0 | 0.00 | 0.00 | 0.00 | 23 | 1013.6 |
| 20260509151017 | 72 | 281 | 1.0 | 6.0 | 0.00 | 0.00 | 0.00 | 22 | 1013.7 |
| 20260509150511 | 72 | 324 | 2.0 | 7.0 | 0.00 | 0.00 | 0.00 | 24 | 1013.7 |
| 20260509150037 | 72 | 70 | 1.0 | 7.0 | 0.00 | 0.00 | 0.00 | 25 | 1013.6 |
| 20260509145510 | 71 | 329 | 1.0 | 5.0 | 0.00 | 0.00 | 0.00 | 21 | 1013.6 |
| 20260509145011 | 71 | 322 | 2.0 | 6.0 | 0.00 | 0.00 | 0.00 | 23 | 1013.6 |
| 20260509144528 | 71 | 9 | 2.0 | 10.0 | 0.00 | 0.00 | 0.00 | 24 | 1013.7 |
| 20260509144012 | 70 | 322 | 3.0 | 10.0 | 0.00 | 0.00 | 0.00 | 25 | 1013.7 |
| 20260509135508 | 65 | 244 | 2.0 | 10.0 | 0.00 | 0.00 | 0.00 | 35 | 1013.5 |
| 20260509135017 | 64 | 254 | 2.0 | 6.0 | 0.00 | 0.00 | 0.00 | 36 | 1013.5 |
| 20260509134524 | 62 | 350 | 1.0 | 8.0 | 0.00 | 0.00 | 0.00 | 37 | 1013.5 |
| 20260509134009 | 61 | 302 | 1.0 | 8.0 | 0.00 | 0.00 | 0.00 | 41 | 1013.5 |
| 20260509133509 | 59 | 283 | 2.0 | 8.0 | 0.00 | 0.00 | 0.00 | 42 | 1013.6 |
| 20260509133024 | 58 | 298 | 1.0 | 4.0 | 0.00 | 0.00 | 0.00 | 44 | 1013.4 |
| 20260509132511 | 56 | 292 | 1.0 | 4.0 | 0.00 | 0.00 | 0.00 | 47 | 1013.3 |
| 20260509132010 | 55 | 270 | 0.0 | 4.0 | 0.00 | 0.00 | 0.00 | 58 | 1013.4 |
| 20260509131525 | 54 | 270 | 0.0 | 4.0 | 0.00 | 0.00 | 0.00 | 53 | 1013.4 |
| 20260509131010 | 53 | 270 | 0.0 | 8.0 | 0.00 | 0.00 | 0.00 | 56 | 1013.4 |
| 20260509130508 | 52 | 270 | 1.0 | 9.0 | 0.00 | 0.00 | 0.00 | 50 | 1013.4 |
| 20260509130025 | 51 | 270 | 2.0 | 9.0 | 0.00 | 0.00 | 0.00 | 56 | 1013.2 |
| 20260509125514 | 50 | 270 | 0.0 | 2.0 | 0.00 | 0.00 | 0.00 | 63 | 1013.3 |
| 20260509125008 | 50 | 282 | 0.0 | 1.0 | 0.00 | 0.00 | 0.00 | 67 | 1013.2 |
| 20260509124525 | 50 | 281 | 0.0 | 1.0 | 0.00 | 0.00 | 0.00 | 67 | 1013.1 |
| 20260509124009 | 50 | 283 | 0.0 | 1.0 | 0.00 | 0.00 | 0.00 | 68 | 1013.1 |
| 20260509123509 | 50 | 270 | 0.0 | 3.0 | 0.00 | 0.00 | 0.00 | 67 | 1013.1 |
| 20260509123025 | 50 | 270 | 0.0 | 3.0 | 0.00 | 0.00 | 0.00 | 63 | 1013.0 |
| 20260509122510 | 50 | 270 | 0.0 | 2.0 | 0.00 | 0.00 | 0.00 | 60 | 1012.9 |
| 20260509122010 | 50 | 279 | 0.0 | 2.0 | 0.00 | 0.00 | 0.00 | 62 | 1012.8 |
| 20260509121520 | 50 | 279 | 0.0 | 2.0 | 0.00 | 0.00 | 0.00 | 62 | 1012.8 |
| 20260509121012 | 50 | 280 | 0.0 | 2.0 | 0.00 | 0.00 | 0.00 | 63 | 1012.7 |
| 20260509120514 | 50 | 281 | 0.0 | 2.0 | 0.00 | 0.00 | 0.00 | 63 | 1012.7 |
| 20260509120030 | 50 | 283 | 0.0 | 1.0 | 0.00 | 0.00 | 0.00 | 63 | 1012.7 |
| 20260509115511 | 50 | 283 | 0.0 | 3.0 | 0.00 | 0.00 | 0.00 | 63 | 1012.8 |
| 20260509115010 | 51 | 270 | 0.0 | 3.0 | 0.00 | 0.01 | 0.00 | 64 | 1012.9 |
| 20260509114513 | 50 | 270 | 0.0 | 3.0 | 0.00 | 0.01 | 0.00 | 59 | 1012.6 |
| 20260509112508 | 49 | 270 | 1.0 | 5.0 | 0.00 | 0.01 | 0.00 | 64 | 1012.3 |
| 20260509112008 | 49 | 285 | 1.0 | 5.0 | 0.00 | 0.01 | 0.00 | 65 | 1012.2 |
| 20260509111521 | 48 | 279 | 0.0 | 5.0 | 0.00 | 0.01 | 0.00 | 66 | 1012.1 |
| 20260509111011 | 48 | 287 | 0.0 | 5.0 | 0.00 | 0.01 | 0.00 | 68 | 1011.9 |
| 20260509110509 | 48 | 275 | 1.0 | 5.0 | 0.00 | 0.01 | 0.00 | 67 | 1011.9 |
| 20260509110026 | 47 | 279 | 0.0 | 4.0 | 0.00 | 0.01 | 0.00 | 70 | 1011.9 |
| 20260509104510 | 48 | 279 | 0.0 | 1.0 | 0.00 | 0.01 | 0.00 | 72 | 1011.9 |
| 20260509104007 | 48 | 279 | 0.0 | 1.0 | 0.00 | 0.01 | 0.00 | 73 | 1012.0 |
| 20260509103505 | 48 | 279 | 0.0 | 2.0 | 0.00 | 0.01 | 0.00 | 72 | 1012.0 |
| 20260509103013 | 48 | 279 | 0.0 | 2.0 | 0.00 | 0.01 | 0.00 | 72 | 1011.9 |
| 20260509102506 | 48 | 279 | 0.0 | 2.0 | 0.00 | 0.01 | 0.00 | 72 | 1011.9 |
| 20260509102009 | 49 | 279 | 0.0 | 2.0 | 0.00 | 0.01 | 0.00 | 71 | 1011.9 |
| 20260509101520 | 49 | 279 | 0.0 | 3.0 | 0.00 | 0.01 | 0.00 | 71 | 1011.9 |
| 20260509101010 | 49 | 279 | 0.0 | 3.0 | 0.00 | 0.01 | 0.00 | 71 | 1011.9 |
| 20260509100508 | 49 | 286 | 0.0 | 2.0 | 0.00 | 0.01 | 0.00 | 71 | 1011.9 |
| 20260509100024 | 49 | 287 | 0.0 | 2.0 | 0.00 | 0.01 | 0.00 | 70 | 1012.0 |
| 20260509095515 | 49 | 287 | 0.0 | 3.0 | 0.00 | 0.01 | 0.00 | 70 | 1011.9 |
| 20260509095008 | 49 | 287 | 0.0 | 3.0 | 0.00 | 0.01 | 0.00 | 69 | 1011.9 |
| 20260509094526 | 50 | 275 | 0.0 | 2.0 | 0.00 | 0.01 | 0.00 | 70 | 1011.8 |
| 20260509093012 | 50 | 279 | 0.0 | 2.0 | 0.00 | 0.01 | 0.00 | 72 | 1011.8 |
| 20260509092506 | 50 | 279 | 1.0 | 2.0 | 0.00 | 0.01 | 0.00 | 72 | 1011.8 |
| 20260509092012 | 50 | 279 | 0.0 | 2.0 | 0.00 | 0.01 | 0.00 | 69 | 1011.8 |
| 20260509091515 | 50 | 279 | 0.0 | 2.0 | 0.00 | 0.01 | 0.00 | 68 | 1011.8 |
| 20260509091006 | 50 | 279 | 0.0 | 3.0 | 0.00 | 0.01 | 0.00 | 69 | 1011.8 |
| 20260509090508 | 51 | 279 | 0.0 | 4.0 | 0.00 | 0.01 | 0.00 | 68 | 1011.9 |
| 20260509090022 | 51 | 286 | 0.0 | 4.0 | 0.00 | 0.01 | 0.00 | 68 | 1011.9 |
| 20260509085508 | 51 | 279 | 0.0 | 4.0 | 0.00 | 0.01 | 0.00 | 68 | 1011.8 |
| 20260509085009 | 51 | 279 | 1.0 | 4.0 | 0.00 | 0.01 | 0.00 | 68 | 1011.9 |
| 20260509084527 | 51 | 279 | 1.0 | 3.0 | 0.00 | 0.01 | 0.00 | 68 | 1011.9 |
| 20260509084011 | 51 | 279 | 0.0 | 3.0 | 0.00 | 0.01 | 0.00 | 68 | 1011.9 |
| 20260509083513 | 52 | 279 | 0.0 | 3.0 | 0.00 | 0.01 | 0.00 | 68 | 1011.8 |
| 20260509083023 | 52 | 279 | 0.0 | 3.0 | 0.00 | 0.01 | 0.00 | 67 | 1011.8 |
| 20260509082510 | 52 | 279 | 1.0 | 3.0 | 0.00 | 0.01 | 0.00 | 67 | 1011.8 |
| 20260509082011 | 52 | 279 | 0.0 | 3.0 | 0.00 | 0.01 | 0.00 | 67 | 1011.8 |
| 20260509081512 | 53 | 281 | 1.0 | 3.0 | 0.00 | 0.01 | 0.00 | 67 | 1011.9 |
| 20260509081010 | 53 | 282 | 0.0 | 0.0 | 0.00 | 0.01 | 0.00 | 66 | 1011.9 |
| 20260509080506 | 53 | 270 | 0.0 | 1.0 | 0.00 | 0.01 | 0.00 | 66 | 1012.1 |
| 20260509080018 | 53 | 275 | 0.0 | 2.0 | 0.00 | 0.01 | 0.00 | 65 | 1012.1 |
| 20260509075507 | 53 | 275 | 0.0 | 5.0 | 0.00 | 0.01 | 0.00 | 65 | 1012.1 |
| 20260509075007 | 53 | 275 | 1.0 | 5.0 | 0.00 | 0.01 | 0.00 | 65 | 1012.1 |
| 20260509074520 | 54 | 275 | 2.0 | 5.0 | 0.00 | 0.01 | 0.00 | 65 | 1012.1 |
| 20260509074008 | 54 | 280 | 0.0 | 3.0 | 0.00 | 0.01 | 0.00 | 64 | 1012.3 |
| 20260509073510 | 54 | 280 | 1.0 | 3.0 | 0.00 | 0.01 | 0.00 | 64 | 1012.3 |
| 20260509073025 | 54 | 286 | 0.0 | 2.0 | 0.00 | 0.01 | 0.00 | 63 | 1012.2 |
| 20260509072510 | 54 | 286 | 0.0 | 2.0 | 0.00 | 0.01 | 0.00 | 63 | 1012.3 |
| 20260509072016 | 54 | 270 | 0.0 | 3.0 | 0.00 | 0.01 | 0.00 | 63 | 1012.4 |
| 20260509071524 | 55 | 270 | 0.0 | 4.0 | 0.00 | 0.01 | 0.00 | 63 | 1012.5 |
| 20260509071012 | 55 | 270 | 0.0 | 4.0 | 0.00 | 0.01 | 0.00 | 63 | 1012.5 |
| 20260509070510 | 55 | 270 | 0.0 | 6.0 | 0.00 | 0.01 | 0.00 | 62 | 1012.7 |
| 20260509070015 | 55 | 270 | 0.0 | 6.0 | 0.00 | 0.01 | 0.00 | 62 | 1012.7 |
| 20260509065505 | 55 | 270 | 3.0 | 6.0 | 0.00 | 0.01 | 0.00 | 62 | 1012.7 |
| 20260509065006 | 55 | 270 | 1.0 | 5.0 | 0.00 | 0.01 | 0.00 | 63 | 1012.5 |
| 20260509064520 | 55 | 270 | 2.0 | 5.0 | 0.00 | 0.01 | 0.00 | 63 | 1012.4 |
| 20260509064010 | 55 | 270 | 0.0 | 4.0 | 0.00 | 0.01 | 0.00 | 63 | 1012.5 |
| 20260509063514 | 55 | 270 | 1.0 | 4.0 | 0.00 | 0.01 | 0.00 | 63 | 1012.5 |
| 20260509063027 | 55 | 270 | 0.0 | 3.0 | 0.00 | 0.01 | 0.00 | 63 | 1012.5 |
| 20260509062510 | 55 | 270 | 0.0 | 3.0 | 0.00 | 0.01 | 0.00 | 63 | 1012.8 |
| 20260509062009 | 55 | 270 | 0.0 | 3.0 | 0.00 | 0.01 | 0.00 | 63 | 1012.8 |
| 20260509061528 | 55 | 270 | 0.0 | 3.0 | 0.00 | 0.01 | 0.00 | 62 | 1013.1 |
| 20260509061007 | 55 | 270 | 0.0 | 3.0 | 0.00 | 0.01 | 0.00 | 61 | 1013.1 |
| 20260509060512 | 55 | 270 | 1.0 | 3.0 | 0.00 | 0.01 | 0.00 | 63 | 1013.3 |
| 20260509060030 | 55 | 270 | 0.0 | 3.0 | 0.00 | 0.01 | 0.00 | 62 | 1013.3 |
| 20260509055511 | 56 | 270 | 0.0 | 2.0 | 0.00 | 0.01 | 0.01 | 63 | 1013.3 |
| 20260509055015 | 56 | 270 | 0.0 | 1.0 | 0.00 | 0.01 | 0.01 | 61 | 1013.5 |
| 20260509054517 | 56 | 270 | 0.0 | 2.0 | 0.00 | 0.01 | 0.01 | 61 | 1013.6 |
| 20260509054009 | 56 | 270 | 0.0 | 3.0 | 0.00 | 0.01 | 0.01 | 61 | 1013.6 |
| 20260509053510 | 56 | 270 | 0.0 | 3.0 | 0.00 | 0.01 | 0.01 | 61 | 1013.8 |
| 20260509053018 | 56 | 270 | 1.0 | 3.0 | 0.00 | 0.01 | 0.01 | 61 | 1013.8 |
| 20260509052507 | 56 | 270 | 0.0 | 2.0 | 0.00 | 0.01 | 0.01 | 63 | 1013.7 |
| 20260509052012 | 56 | 270 | 0.0 | 1.0 | 0.00 | 0.01 | 0.01 | 62 | 1013.8 |
| 20260509051521 | 56 | 270 | 0.0 | 1.0 | 0.00 | 0.01 | 0.01 | 61 | 1013.9 |
| 20260509051009 | 56 | 270 | 0.0 | 2.0 | 0.00 | 0.01 | 0.01 | 61 | 1013.9 |
| 20260509050510 | 56 | 270 | 0.0 | 2.0 | 0.00 | 0.01 | 0.01 | 60 | 1013.9 |
| 20260509050043 | 56 | 270 | 0.0 | 3.0 | 0.00 | 0.01 | 0.01 | 60 | 1014.0 |
| 20260509045512 | 56 | 270 | 0.0 | 3.0 | 0.00 | 0.01 | 0.01 | 61 | 1014.1 |
| 20260509045014 | 57 | 270 | 0.0 | 0.0 | 0.00 | 0.01 | 0.01 | 62 | 1014.1 |
| 20260509044527 | 57 | 270 | 0.0 | 0.0 | 0.00 | 0.01 | 0.01 | 62 | 1014.1 |
| 20260509044010 | 57 | 270 | 0.0 | 0.0 | 0.00 | 0.01 | 0.01 | 61 | 1014.1 |
| 20260509043508 | 57 | 270 | 0.0 | 0.0 | 0.00 | 0.01 | 0.01 | 58 | 1014.1 |
| 20260509043018 | 57 | 270 | 0.0 | 0.0 | 0.00 | 0.01 | 0.01 | 58 | 1014.2 |
| 20260509042508 | 57 | 270 | 0.0 | 0.0 | 0.00 | 0.01 | 0.01 | 58 | 1014.3 |
| 20260509042011 | 58 | 270 | 0.0 | 0.0 | 0.00 | 0.01 | 0.01 | 59 | 1014.3 |
| 20260509041522 | 58 | 270 | 0.0 | 0.0 | 0.00 | 0.01 | 0.01 | 56 | 1014.2 |
| 20260509041011 | 58 | 270 | 0.0 | 1.0 | 0.00 | 0.01 | 0.01 | 56 | 1014.1 |
| 20260509040507 | 58 | 270 | 0.0 | 1.0 | 0.00 | 0.01 | 0.01 | 56 | 1014.1 |
| 20260509040025 | 58 | 270 | 0.0 | 2.0 | 0.00 | 0.01 | 0.01 | 56 | 1014.1 |
| 20260509035513 | 58 | 270 | 0.0 | 2.0 | 0.00 | 0.01 | 0.01 | 56 | 1014.1 |
| 20260509035008 | 58 | 270 | 0.0 | 1.0 | 0.00 | 0.01 | 0.01 | 55 | 1014.0 |
| 20260509034526 | 58 | 270 | 0.0 | 2.0 | 0.00 | 0.01 | 0.01 | 55 | 1013.9 |
| 20260509034009 | 58 | 270 | 0.0 | 2.0 | 0.00 | 0.01 | 0.01 | 56 | 1014.0 |
| 20260509033509 | 58 | 270 | 0.0 | 1.0 | 0.00 | 0.01 | 0.01 | 56 | 1014.0 |
| 20260509033029 | 59 | 270 | 0.0 | 0.0 | 0.00 | 0.01 | 0.01 | 55 | 1014.0 |
| 20260509032513 | 59 | 270 | 0.0 | 1.0 | 0.00 | 0.01 | 0.01 | 55 | 1014.1 |
| 20260509032011 | 59 | 270 | 0.0 | 1.0 | 0.00 | 0.01 | 0.01 | 54 | 1014.0 |
| 20260509031531 | 59 | 270 | 0.0 | 2.0 | 0.00 | 0.01 | 0.01 | 54 | 1013.9 |
| 20260509031012 | 59 | 270 | 0.0 | 2.0 | 0.00 | 0.01 | 0.01 | 53 | 1013.8 |
| 20260509030509 | 60 | 270 | 0.0 | 0.0 | 0.00 | 0.01 | 0.01 | 53 | 1013.9 |
| 20260509030032 | 60 | 270 | 0.0 | 0.0 | 0.00 | 0.01 | 0.01 | 52 | 1013.9 |
| 20260509025510 | 61 | 270 | 0.0 | 0.0 | 0.00 | 0.01 | 0.01 | 53 | 1013.8 |
| 20260509025011 | 61 | 270 | 0.0 | 0.0 | 0.00 | 0.01 | 0.01 | 52 | 1013.8 |
| 20260509024510 | 61 | 270 | 0.0 | 0.0 | 0.00 | 0.01 | 0.01 | 50 | 1013.8 |
| 20260509024009 | 62 | 270 | 0.0 | 1.0 | 0.00 | 0.01 | 0.01 | 50 | 1013.8 |
| 20260509023506 | 62 | 270 | 0.0 | 1.0 | 0.00 | 0.01 | 0.01 | 50 | 1013.9 |
| 20260509023017 | 62 | 270 | 0.0 | 1.0 | 0.00 | 0.01 | 0.01 | 49 | 1013.8 |
| 20260509022513 | 63 | 270 | 0.0 | 0.0 | 0.00 | 0.01 | 0.01 | 48 | 1013.8 |
| 20260509022007 | 63 | 270 | 0.0 | 1.0 | 0.00 | 0.01 | 0.01 | 47 | 1013.8 |
| 20260509021517 | 63 | 270 | 0.0 | 1.0 | 0.00 | 0.01 | 0.01 | 46 | 1013.7 |
| 20260509021008 | 64 | 270 | 0.0 | 1.0 | 0.00 | 0.01 | 0.01 | 45 | 1013.7 |
| 20260509020510 | 64 | 286 | 0.0 | 1.0 | 0.00 | 0.01 | 0.01 | 44 | 1013.7 |
| 20260509020020 | 64 | 286 | 0.0 | 2.0 | 0.00 | 0.01 | 0.01 | 44 | 1013.7 |
| 20260509015508 | 64 | 286 | 0.0 | 2.0 | 0.00 | 0.01 | 0.01 | 44 | 1013.6 |
| 20260509015004 | 65 | 270 | 0.0 | 1.0 | 0.00 | 0.01 | 0.01 | 43 | 1013.6 |
| 20260509014506 | 65 | 270 | 0.0 | 2.0 | 0.00 | 0.01 | 0.01 | 42 | 1013.5 |
| 20260509014004 | 65 | 270 | 0.0 | 2.0 | 0.00 | 0.01 | 0.01 | 42 | 1013.5 |
| 20260509013504 | 66 | 287 | 0.0 | 2.0 | 0.00 | 0.01 | 0.01 | 41 | 1013.5 |
| 20260509013022 | 66 | 287 | 0.0 | 2.0 | 0.00 | 0.01 | 0.01 | 40 | 1013.5 |
| 20260509012507 | 66 | 286 | 0.0 | 2.0 | 0.00 | 0.01 | 0.01 | 40 | 1013.4 |
| 20260509012007 | 67 | 286 | 0.0 | 2.0 | 0.00 | 0.01 | 0.01 | 40 | 1013.5 |
| 20260509011514 | 67 | 286 | 0.0 | 2.0 | 0.00 | 0.01 | 0.01 | 39 | 1013.5 |
| 20260509011012 | 67 | 275 | 0.0 | 4.0 | 0.00 | 0.01 | 0.01 | 38 | 1013.5 |
| 20260509010509 | 67 | 287 | 1.0 | 4.0 | 0.00 | 0.01 | 0.01 | 38 | 1013.5 |
| 20260509010023 | 67 | 285 | 1.0 | 4.0 | 0.00 | 0.01 | 0.01 | 38 | 1013.5 |
| 20260509005507 | 68 | 286 | 0.0 | 3.0 | 0.00 | 0.01 | 0.01 | 37 | 1013.3 |
| 20260509005011 | 68 | 286 | 1.0 | 4.0 | 0.00 | 0.01 | 0.01 | 37 | 1013.4 |
| 20260509004529 | 68 | 285 | 1.0 | 4.0 | 0.00 | 0.01 | 0.01 | 37 | 1013.4 |
| 20260509004013 | 69 | 286 | 1.0 | 4.0 | 0.00 | 0.01 | 0.01 | 36 | 1013.4 |
| 20260509003504 | 70 | 206 | 0.0 | 7.0 | 0.00 | 0.01 | 0.01 | 36 | 1013.4 |
| 20260509003010 | 70 | 160 | 1.0 | 7.0 | 0.00 | 0.01 | 0.01 | 35 | 1013.4 |
| 20260509002503 | 70 | 40 | 1.0 | 4.0 | 0.00 | 0.01 | 0.01 | 35 | 1013.4 |
| 20260509002012 | 70 | 42 | 1.0 | 4.0 | 0.00 | 0.01 | 0.01 | 35 | 1013.4 |
| 20260509001514 | 70 | 44 | 1.0 | 7.0 | 0.00 | 0.01 | 0.01 | 36 | 1013.4 |
| 20260509001008 | 70 | 133 | 2.0 | 7.0 | 0.00 | 0.01 | 0.01 | 36 | 1013.5 |
| 20260509000507 | 70 | 216 | 1.0 | 6.0 | 0.00 | 0.01 | 0.01 | 35 | 1013.5 |
| 20260509000016 | 70 | 234 | 1.0 | 5.0 | 0.00 | 0.01 | 0.01 | 35 | 1013.5 |
| 20260508235508 | 70 | 98 | 1.0 | 5.0 | 0.00 | 0.01 | 0.01 | 36 | 1013.5 |
| 20260508235011 | 70 | 223 | 1.0 | 5.0 | 0.00 | 0.01 | 0.01 | 36 | 1013.4 |
| 20260508234523 | 70 | 147 | 1.0 | 5.0 | 0.00 | 0.01 | 0.01 | 36 | 1013.4 |
| 20260508234008 | 70 | 207 | 0.0 | 4.0 | 0.00 | 0.01 | 0.01 | 36 | 1013.4 |
| 20260508233510 | 71 | 202 | 1.0 | 5.0 | 0.00 | 0.01 | 0.01 | 36 | 1013.4 |
| 20260508233022 | 71 | 296 | 1.0 | 7.0 | 0.00 | 0.01 | 0.01 | 36 | 1013.5 |
| 20260508232504 | 71 | 175 | 2.0 | 7.0 | 0.00 | 0.01 | 0.01 | 36 | 1013.4 |
| 20260508232003 | 71 | 219 | 2.0 | 5.0 | 0.00 | 0.01 | 0.01 | 36 | 1013.4 |
| 20260508231513 | 71 | 196 | 1.0 | 9.0 | 0.00 | 0.01 | 0.01 | 36 | 1013.5 |
| 20260508231007 | 71 | 275 | 1.0 | 9.0 | 0.00 | 0.01 | 0.01 | 36 | 1013.5 |
| 20260508230504 | 70 | 173 | 2.0 | 7.0 | 0.00 | 0.01 | 0.01 | 38 | 1013.5 |
| 20260508230015 | 71 | 231 | 2.0 | 6.0 | 0.00 | 0.01 | 0.01 | 37 | 1013.5 |
| 20260508225507 | 71 | 201 | 2.0 | 7.0 | 0.00 | 0.01 | 0.01 | 37 | 1013.5 |
| 20260508225009 | 71 | 111 | 0.0 | 7.0 | 0.00 | 0.01 | 0.01 | 37 | 1013.5 |